Location: Burland Observatory
(39.4088°N, 105.4217°W)
Time: 16:11:16
(UTC-07:00)

SR - Pass Details

Date: 14 December 2019
Orbit: 574 x 882 km, 66.7° (Epoch: 20 January)

Event Time Altitude Azimuth Distance (km) Brightness Sun altitude
Rises 18:22:26 0° 321° (NW) 3,456 ? -19.3°
Reaches altitude 10° 18:25:13 10° 312° (NW) 2,489 ? -19.8°
Maximum altitude 18:30:13 31° 252° (WSW) 1,400 ? -20.8°
Drops below altitude 10° 18:34:55 10° 191° (S) 2,330 ? -21.7°
Sets 18:37:27 0° 181° (S) 3,203 ? -22.1°
